Tracking 29892 objects as of 21-Nov-2024
HD Live streaming from Space Station
objects crossing your sky now

ASTRA 2C

Track ASTRA 2C now!
ASTRA 2C is classified as:


NORAD ID: 26853
Int'l Code: 2001-025A
Perigee: 36,134.8 km
Apogee: 36,153.0 km
Inclination: 6.8 °
Period: 1,454.0 minutes
Semi major axis: 42514 km
RCS: 15.8865 m2 (large)
Launch date: June 16, 2001
Source: SOCIETE EUROPEENNE DES SATELLITES (SES)
Launch site: TYURATAM MISSILE AND SPACE COMPLEX (TTMTR)

Direct-to-home; broadcasting, multimedia; 32 transponders for first five years; 28 after, continental Europe
Your satellite tracking list
Your tracking list is empty




NASA's NSSDC Master Catalog

Two Line Element Set (TLE):
1 26853U 01025A   24325.51890108  .00000060  00000-0  00000-0 0  9996
2 26853   6.7621  70.4101 0002136 229.9573 192.2659  0.99035534 39273
Source of the keplerian elements: AFSPC